Roswell, NM

7:47 PM MST on January 21, 2018 (GMT -0700)
Roswell Industrial

Weather History for KROW - February, 2014

Change the Weather History Date:

Sunday, February 2, 2014

  Actual Average Record
Temperature  
Mean Temperature 35 °F 43 °F  
Max Temperature 39 °F 58 °F 79 °F (2003)
Min Temperature 30 °F 28 °F -6 °F (1951)
Degree Days  
Heating Degree Days 30 22  
Month to date heating degree days 42 44  
Since 1 July heating degree days 2239 2210  
Cooling Degree Days 0 0  
Month to date cooling degree days 0 0  
Year to date cooling degree days 0 0  
Moisture  
Dew Point 27 °F    
Average Humidity 70    
Maximum Humidity 92    
Minimum Humidity 48    
Precipitation  
Precipitation T in 0.02 in 0.49 in (1956)
Month to date precipitation T 0.03  
Year to date precipitation T 0.41  
Sea Level Pressure  
Sea Level Pressure 30.09 in    
Wind  
Wind Speed 9 mph (East)    
Max Wind Speed 21 mph    
Max Gust Speed 23 mph    
Visibility 8 miles    
Events Snow    
T = Trace of Precipitation, MM = Missing Value Source: NWS Daily Summary

Daily Weather History Graph

Daily Weather History Graph

Search for Another Location

Airport or City:

Trip Planner

Search our weather history database for the weather conditions in past years. The results will help you decide how hot, cold, wet, or windy it might be!

Date:

Astronomy

Feb. 02, 2014 Rise Set
Actual Time 6:53 AM MST 5:30 PM MST
Civil Twilight 6:27 AM MST 5:56 PM MST
Nautical Twilight 5:57 AM MST 6:26 PM MST
Astronomical Twilight 5:28 AM MST 6:55 PM MST
Moon 8:33 AM MST (2/2) 9:03 PM MST (2/2)
Length of Visible Light 11h 29m
Length of Day
10h 37m
Waxing Crescent, 12% of the Moon is Illuminated
Feb 2
Waxing Crescent
Feb 6
First Quarter
Feb 14
Full
Feb 22
Last Quarter
Mar 1
New

Hourly Weather History & Observations

Time (MST) Temp. Windchill Dew Point Humidity Pressure Visibility Wind Dir Wind Speed Gust Speed Precip Events Conditions
12:40 AM 37.0 °F 28.1 °F 24.1 °F 59% 30.01 in 10.0 mi ENE 15.0 mph - N/A   Overcast
12:51 AM 37.0 °F 28.9 °F 24.1 °F 59% 29.93 in 10.0 mi NE 12.7 mph - N/A   Overcast
1:51 AM 37.0 °F 29.3 °F 23.0 °F 57% 29.95 in 10.0 mi NNE 11.5 mph - 0.00 in   Overcast
2:51 AM 35.1 °F 26.9 °F 21.9 °F 59% 29.97 in 10.0 mi NNE 11.5 mph - N/A   Overcast
3:51 AM 34.0 °F 24.6 °F 24.1 °F 67% 30.01 in 10.0 mi NNE 13.8 mph - N/A   Overcast
4:51 AM 32.0 °F 24.2 °F 27.0 °F 82% 30.03 in 5.0 mi North 9.2 mph - 0.00 in Snow Light Snow
5:51 AM 30.9 °F 22.8 °F 28.0 °F 89% 30.06 in 3.0 mi NNE 9.2 mph - 0.00 in Snow Light Snow
5:54 AM 30.9 °F 22.8 °F 28.0 °F 89% 30.11 in 2.5 mi NNE 9.2 mph - 0.00 in Snow Light Snow
6:05 AM 30.9 °F 23.5 °F 28.9 °F 92% 30.11 in 3.0 mi NNE 8.1 mph - 0.00 in Snow Light Snow
6:25 AM 30.9 °F 23.5 °F 28.0 °F 89% 30.12 in 4.0 mi NE 8.1 mph - 0.00 in Snow Light Snow
6:48 AM 30.2 °F 24.3 °F 26.6 °F 86% 30.14 in 8.0 mi NE 5.8 mph - 0.00 in   Overcast
6:51 AM 30.9 °F 24.3 °F 27.0 °F 85% 30.11 in 8.0 mi ENE 6.9 mph - 0.00 in   Overcast
7:51 AM 30.9 °F 26.2 °F 26.1 °F 82% 30.14 in 7.0 mi East 4.6 mph - N/A   Overcast
8:51 AM 30.9 °F 23.5 °F 25.0 °F 79% 30.17 in 7.0 mi East 8.1 mph - N/A   Overcast
9:51 AM 30.9 °F 22.8 °F 24.1 °F 76% 30.18 in 9.0 mi East 9.2 mph - N/A   Overcast
10:51 AM 32.0 °F 26.4 °F 25.0 °F 75% 30.19 in 9.0 mi ENE 5.8 mph - N/A   Overcast
11:51 AM 33.1 °F 28.7 °F 25.0 °F 72% 30.17 in 9.0 mi Variable 4.6 mph - N/A   Overcast
12:51 PM 34.0 °F 31.0 °F 25.0 °F 70% 30.14 in 9.0 mi ENE 3.5 mph - N/A   Overcast
1:51 PM 34.0 °F 31.0 °F 26.1 °F 73% 30.12 in 9.0 mi Variable 3.5 mph - N/A   Overcast
2:51 PM 35.1 °F 31.0 °F 26.1 °F 70% 30.10 in 10.0 mi South 4.6 mph - N/A   Overcast
3:51 PM 35.1 °F 29.3 °F 26.1 °F 70% 30.10 in 10.0 mi South 6.9 mph - N/A   Overcast
4:51 PM 35.1 °F 28.6 °F 27.0 °F 72% 30.10 in 8.0 mi South 8.1 mph - N/A   Overcast
5:51 PM 35.1 °F 27.9 °F 28.0 °F 76% 30.11 in 9.0 mi South 9.2 mph - N/A   Overcast
6:51 PM 34.0 °F 26.6 °F 28.9 °F 82% 30.12 in 8.0 mi South 9.2 mph - N/A   Overcast
7:51 PM 34.0 °F 25.5 °F 28.9 °F 82% 30.13 in 9.0 mi South 11.5 mph - N/A   Overcast
8:51 PM 34.0 °F 25.5 °F 28.9 °F 82% 30.12 in 9.0 mi SSE 11.5 mph - N/A   Overcast
9:51 PM 34.0 °F 26.0 °F 30.0 °F 85% 30.12 in 8.0 mi South 10.4 mph - N/A   Overcast
10:51 PM 34.0 °F 25.0 °F 28.9 °F 82% 30.09 in 10.0 mi SSE 12.7 mph - N/A   Overcast
11:47 PM 33.8 °F 24.3 °F 28.4 °F 81% 30.07 in 10.0 mi SSE 13.8 mph - N/A   Overcast
11:51 PM 33.1 °F 23.9 °F 28.9 °F 85% 30.08 in 10.0 mi SSE 12.7 mph - N/A   Overcast